Location: Unspecified
(0.0000°N, 0.0000°E)
Time: 01:24:14
(UTC+00:00)

Tiros 1 - Pass Details

Date: 24 November 2019
Orbit: 630 x 664 km, 48.4° (Epoch: 11 December)

Event Time Altitude Azimuth Distance (km) Brightness Sun altitude
Rises 20:59:38 0° 319° (NW) 2,934 - -44.3°
Reaches altitude 10° 21:01:57 10° 318° (NW) 2,032 - -44.8°
Maximum altitude 21:06:38 79° 231° (SW) 664 - -45.8°
Drops below altitude 10° 21:11:24 10° 145° (SE) 2,061 - -46.8°
Sets 21:13:45 0° 143° (SE) 2,979 - -47.3°
